Location: Mainz-Finthen
(49.9906°N, 8.1713°E)
Time: 02:58:55
(UTC+00:00)

BlueWalker 3 - Pass Details

Date: 02 December 2022
Orbit: 499 x 517 km, 53.2° (Epoch: 26 January)

Event Time Altitude Azimuth Distance (km) Brightness Sun altitude
Rises 19:07:15 0° 292° (WNW) 2,627 6.6 -34.3°
Reaches altitude 10° 19:09:27 10° 292° (WNW) 1,735 5.4 -34.6°
Enters shadow 19:09:48 12° 292° (WNW) 1,594 5.2 -34.7°
